Location: Boulin
(43.2500°N, 0.1333°E)
Time: 04:16:02
(UTC+00:00)

Daily predictions for brighter satellites

Satellite Brightness Start Highest point End
(mag) Time Altitude Azimuth Time Altitude Azimuth Time Altitude Azimuth
Cosmos 1980 Rocket 3.7 03:23:21 33° E 03:23:21 33° E 03:27:20 10° NE
NOSS 3-1 (A) 4.2 03:23:44 68° NE 03:23:59 68° NE 03:32:53 10° SE
ATLAS 3B R/B 3.7 03:27:51 37° N 03:30:20 47° NE 03:37:44 10° ESE
Cosmos 1697 Rocket 4.2 03:42:44 27° NNE 03:42:44 27° NNE 03:45:12 10° NNE
ATLAS 2AS CENTAUR R/B 3.0 03:47:22 58° N 03:47:22 58° N 03:53:08 10° NNE
Lacrosse 4 Rocket 3.6 03:49:00 23° E 03:49:00 23° E 03:51:10 10° ESE
Cosmos 1818 4.2 03:51:21 54° E 03:51:21 54° E 03:55:54 10° NE
USA 59 Rocket 2.6 03:53:36 13° NNE 03:54:04 13° NE 03:56:16 10° ENE
Cosmos 2263 Rocket 2.7 04:00:00 47° NNE 04:01:14 56° ENE 04:06:44 10° SE
Cosmos 2082 4.5 04:03:04 31° N 04:05:29 49° ENE 04:10:56 10° SE
Cosmos 2266 Rocket 4.1 04:02:31 10° S 04:08:54 77° E 04:15:19 10° N
Cosmos 2227 Rocket 3.8 04:13:54 22° S 04:13:54 22° S 04:15:55 10° S
Cosmos 2285 Rocket 3.8 04:11:35 76° WSW 04:11:35 76° WSW 04:17:55 10° SSE
BREEZE-M DEB (TANK) 4.3 04:14:05 21° NE 04:14:05 21° NE 04:16:19 10° ENE
SL-16 R/B 4.3 04:17:13 10° SSE 04:21:44 25° ESE 04:26:17 10° NE
Gbstr 26 Del rocket 3.7 04:22:25 48° SSE 04:22:52 50° SE 04:27:51 10° ENE
USA 229 DEB 4.5 04:21:54 20° NNW 04:27:18 57° NE 04:35:16 10° SE
Cosmos 1655 Rocket 4.3 04:22:07 10° S 04:28:26 70° E 04:34:46 10° NNE
Cosmos 1484 Rocket 3.6 04:26:05 10° NNE 04:29:28 43° E 04:30:40 30° SSE
IRAS Rocket 4.1 04:30:01 10° NNE 04:35:32 77° WNW 04:40:09 15° SSW
DELTA 2 R/B (1) 3.7 04:35:55 51° SW 04:36:59 61° S 04:42:28 10° E
Cosmos 2219 3.1 04:35:44 51° NW 04:37:03 68° WSW 04:42:39 10° SSE
S3M 3.8 04:30:51 10° NNW 04:37:05 71° W 04:43:11 10° S
BREEZE-M DEB (TANK) 3.4 04:39:16 29° ESE 04:39:16 29° ESE 04:41:03 10° E
Cosmos 1417 Rocket 4.4 04:34:48 10° NNW 04:40:46 55° W 04:46:42 10° SSW
H-2A R/B 2.6 04:39:43 10° N 04:43:09 36° NNW 04:43:09 36° NNW
BREEZE-M DEB (TANK) 2.6 04:45:30 65° NE 04:45:30 65° NE 04:51:11 10° ESE
USA 215 4.5 04:40:17 10° ENE 04:46:19 39° SE 04:52:20 10° SSW
Meteor 1-24 Rocket 3.5 04:44:48 10° SSW 04:50:14 61° WNW 04:55:33 10° N
SL-8 R/B 3.5 04:49:43 55° W 04:50:43 80° NNW 04:55:29 10° ENE
Cosmos 2278 4.5 04:46:54 10° S 04:52:20 53° ESE 04:57:49 10° NNE
ARIANE 5 R/B 4.5 04:50:43 10° NE 04:55:09 30° E 04:59:37 10° SSE
ARGOS 3.1 04:50:14 10° NNE 04:55:42 85° WNW 05:01:07 10° SSW
Thor Agena Rocket 3.4 04:52:05 10° N 04:57:15 66° WNW 05:02:19 10° SSW
Meteor 2-20 4.5 04:54:10 10° NNW 05:00:07 54° W 05:06:01 10° SSW
Cosmos 1844 Rocket 4.1 04:55:35 10° N 05:00:47 36° NE 05:05:56 10° ESE
Meteor 2-20 Rocket 4.2 04:55:10 10° NNW 05:01:03 75° W 05:06:45 10° S
Cosmos 2322 Rocket 4.0 04:56:18 10° SSE 05:01:16 32° ESE 05:06:13 10° NE
Cosmos 1980 Rocket 2.7 05:05:10 32° W 05:06:13 35° NW 05:11:20 10° N
Sich 1 Rocket 4.2 05:02:15 10° N 05:06:41 58° E 05:11:06 10° SSE
H-2A R/B 4.4 05:06:11 10° NE 05:08:12 22° E 05:10:12 10° SSE
IRS-1D 4.2 05:05:43 10° N 05:09:55 30° WNW 05:09:55 30° WNW
Cosmos 2369 3.9 05:07:06 23° WSW 05:10:16 45° WNW 05:15:42 10° NNE
USA 281 3.2 05:04:44 10° S 05:11:11 58° WSW 05:17:40 10° NNW
Cosmos 1378 Rocket 3.4 05:09:32 10° SSW 05:13:57 78° W 05:18:23 10° N
Cosmos 1674 Rocket 3.5 05:11:40 10° S 05:15:58 88° E 05:20:18 10° N
Atlas Centaur 2 3.7 05:14:46 10° SSW 05:16:00 11° SSW 05:17:11 10° S
Cosmos 1025 Rocket 4.4 05:12:37 10° SSE 05:16:34 40° E 05:20:34 10° NNE
ATLAS CENTAUR R/B 3.2 05:18:24 14° NNW 05:18:24 14° NNW 05:19:41 10° N
FengYun 1-2 T 4.2 05:13:03 10° N 05:18:43 78° WNW 05:24:21 10° SSW
Meteor 2-5 Rocket 4.2 05:13:27 10° SW 05:18:46 37° WNW 05:24:00 10° N
USA 267 4.2 05:14:30 10° E 05:20:26 39° NNE 05:26:09 11° NW
ARIANE 6 FM1 Upper Stage 2.6 05:16:16 10° SW 05:20:28 88° SE 05:24:44 10° NE
Cosmos 371 Rocket 3.3 05:16:35 14° NNW 05:20:35 55° WSW 05:25:18 10° S
ATLAS 3B R/B 3.2 05:15:09 16° NW 05:21:12 48° WSW 05:28:25 10° S
Okean 2 Rocket 3.0 05:17:50 10° N 05:22:20 90° NW 05:26:47 10° S
COSMO-SKYMED 1 2.5 05:18:28 10° S 05:22:48 75° WSW 05:27:10 10° NNW
Cosmos 1992 Rocket 4.1 05:17:43 10° SW 05:22:49 54° WNW 05:27:57 10° NNE
Cosmos 1697 Rocket 4.3 05:24:29 15° NW 05:24:29 15° NW 05:27:35 10° N
Cosmos 1939 Rocket 3.7 05:21:47 10° NNW 05:24:25 25° NW 05:24:25 25° NW
Lacrosse 4 Rocket 2.3 05:24:50 26° W 05:25:37 28° WSW 05:29:06 10° S
Cosmos 1486 Rocket 4.3 05:20:26 10° NNW 05:25:38 69° ENE 05:30:49 10° SSE
Cosmos 332 Rocket 4.5 05:21:24 10° NNW 05:26:13 57° ENE 05:30:59 10° SE
NOAA 12 4.1 05:22:12 10° NNE 05:27:34 86° WNW 05:32:53 10° SSW
Cosmos 1844 4.5 05:24:04 10° NNW 05:29:37 53° ENE 05:35:12 10° SE
NOSS 2-1 (D) 3.7 05:29:47 14° NW 05:33:10 82° NE 05:38:37 10° SE
Cosmos 2098 Rocket 2.7 05:30:05 10° N 05:33:48 71° E 05:36:56 10° SSE
Cosmos 2227 4.2 05:30:15 10° NNW 05:35:57 81° WSW 05:41:38 10° SSE
SJ-11-01 4.2 05:33:10 10° N 05:37:49 72° WNW 05:42:27 10° SSW
CRYOSAT 2 4.4 05:32:59 10° S 05:37:52 85° E 05:42:46 10° N
ATLAS 2AS CENTAUR R/B 4.0 05:34:50 16° WNW 05:38:17 22° NNW 05:43:33 10° NNE
USA 59 Rocket 0.2 05:39:52 12° NW 05:43:39 84° SW 05:49:16 10° SSE
Cosmos 2263 Rocket 3.3 05:41:46 15° WNW 05:44:39 22° W 05:48:48 10° SSW
Cosmos 1455 Rocket 4.2 05:40:54 10° N 05:45:06 45° ENE 05:49:14 10° SSE
Cosmos 2237 4.3 05:40:15 10° SW 05:45:49 56° WNW 05:51:26 10° NNE
Nadezhda 1 Rocket 4.3 05:39:53 10° N 05:46:02 69° E 05:52:04 10° SSE
CBERS-1 4.5 05:43:12 10° N 05:47:54 38° WNW 05:52:35 10° SW
SL-08 R/B 4.4 05:43:36 10° SSW 05:49:41 72° W 05:55:51 10° N
Cosmos 2360 Rocket 2.6 05:47:34 10° SSW 05:53:07 69° ESE 05:58:44 10° NNE
Cosmos 1869 4.4 05:49:32 10° N 05:53:11 44° ENE 05:56:50 10° SSE
Cosmos 1437 Rocket 3.5 05:50:09 10° SW 05:53:12 26° WNW 05:56:17 10° NNW
Cosmos 2151 Rocket 4.2 05:51:23 10° NNW 05:55:24 34° W 05:59:25 10° SSW
TIMED 4.5 05:53:01 10° NNW 05:57:18 66° WSW 06:01:33 10° S
Cosmos 1484 Rocket 4.4 06:01:04 10° NW 06:02:34 12° WNW 06:04:03 10° W
Cosmos 1606 2.3 06:00:21 10° N 06:03:44 86° WSW 06:07:05 10° S
Okean 1 Rocket 3.4 05:59:33 10° NNW 06:03:50 47° W 06:08:05 10° SSW
Cosmos 2084 Rocket 4.0 05:59:51 10° WSW 06:03:55 38° NW 06:07:53 10° NNE
BREEZE-M DEB (TANK) 3.6 05:59:20 10° WNW 06:04:20 33° N 06:06:30 10° ENE
Cosmos 1354 Rocket 4.4 05:59:34 10° NNW 06:04:53 72° ENE 06:10:08 10° SSE
SL-16 R/B 2.4 06:00:01 10° SW 06:05:29 49° WNW 06:11:00 10° NNE
Gbstr 26 Del rocket 3.9 06:05:02 10° W 06:09:35 47° NNW 06:15:10 10° NE
NOSS 2-1 (E) 4.1 06:07:26 10° NW 06:11:26 51° WSW 06:16:56 10° SSE
TRACE 4.2 06:09:03 10° S 06:12:18 81° W 06:15:34 10° NNW
CZ-2D R/B 3.1 06:09:21 10° N 06:12:49 54° WNW 06:16:15 10° SSW
EXPRESS MD2 2.6 06:09:52 10° WSW 06:13:10 50° NNW 06:15:29 10° NE
Cosmos 1763 Rocket 4.4 06:08:23 10° S 06:13:25 56° ESE 06:18:34 10° NNE
ADEOS Rocket 3.4 06:09:37 10° NNE 06:16:53 90° ESE 06:23:21 10° SSW
